GEPTR EGPT-EGPT

Flight info

Callsign GEPTR
Flight time 0h 38m
Altitude 5000
Route VFR
Aircraft P28R/L-VGD/A

Departure

Time 2026-05-07 20:19
Airport Perth/Scone Airport (EGPT)

Arrival

Time 2026-05-07 20:57
Airport Perth/Scone Airport (EGPT)
Time Latitude Longitude Altitude Speed Heading
2026-05-07 20:18 56.38129 -3.30800 4588 ft 126 kts 68°
2026-05-07 20:19 56.38634 -3.29495 4612 ft 129 kts 56°
2026-05-07 20:19 56.38955 -3.28819 4668 ft 128 kts 48°
2026-05-07 20:21 56.39354 -3.28230 4701 ft 129 kts 38°
2026-05-07 20:21 56.40216 -3.27726 4559 ft 137 kts 348°
2026-05-07 20:21 56.40977 -3.28471 4541 ft 128 kts 311°
2026-05-07 20:21 56.41595 -3.29701 4353 ft 135 kts 306°
2026-05-07 20:22 56.42292 -3.30981 4109 ft 141 kts 311°
2026-05-07 20:22 56.43027 -3.32203 3814 ft 147 kts 310°
2026-05-07 20:22 56.43771 -3.33452 3607 ft 143 kts 310°
2026-05-07 20:22 56.44492 -3.34644 3399 ft 143 kts 310°
2026-05-07 20:23 56.45233 -3.35846 3188 ft 143 kts 310°
2026-05-07 20:23 56.45972 -3.37032 2985 ft 142 kts 310°
2026-05-07 20:23 56.46719 -3.38223 2780 ft 144 kts 310°
2026-05-07 20:23 56.47446 -3.39435 2627 ft 139 kts 305°
2026-05-07 20:24 56.47844 -3.40890 2522 ft 122 kts 272°
2026-05-07 20:24 56.47630 -3.42243 2424 ft 112 kts 229°
2026-05-07 20:24 56.46923 -3.42720 2333 ft 116 kts 183°
2026-05-07 20:24 56.46209 -3.41954 2188 ft 131 kts 143°
2026-05-07 20:25 56.45626 -3.40643 2070 ft 135 kts 132°
2026-05-07 20:25 56.44991 -3.39565 2018 ft 118 kts 164°
2026-05-07 20:25 56.44229 -3.39514 1989 ft 109 kts 200°
2026-05-07 20:25 56.43617 -3.40300 1948 ft 108 kts 228°
2026-05-07 20:26 56.43308 -3.41530 1970 ft 111 kts 253°
2026-05-07 20:26 56.43220 -3.42915 2006 ft 111 kts 258°
2026-05-07 20:26 56.43146 -3.44316 1980 ft 111 kts 255°
2026-05-07 20:26 56.42923 -3.45633 1938 ft 110 kts 239°
2026-05-07 20:27 56.42440 -3.46713 1880 ft 110 kts 221°
2026-05-07 20:27 56.41870 -3.47546 1904 ft 105 kts 216°
2026-05-07 20:27 56.41271 -3.48289 1891 ft 105 kts 212°
2026-05-07 20:27 56.40522 -3.48327 1779 ft 120 kts 163°
2026-05-07 20:28 56.40019 -3.47118 1867 ft 123 kts 124°
2026-05-07 20:28 56.39738 -3.45671 1913 ft 125 kts 106°
2026-05-07 20:28 56.39891 -3.44118 1937 ft 132 kts 72°
2026-05-07 20:28 56.40457 -3.42795 1983 ft 134 kts 56°
2026-05-07 20:29 56.41056 -3.41517 2086 ft 132 kts 54°
2026-05-07 20:29 56.41649 -3.40208 2109 ft 138 kts 58°
2026-05-07 20:29 56.42194 -3.38815 2223 ft 134 kts 65°
2026-05-07 20:29 56.42652 -3.37338 2270 ft 136 kts 55°
2026-05-07 20:30 56.43378 -3.36303 2387 ft 133 kts 36°
2026-05-07 20:30 56.44139 -3.35339 2446 ft 134 kts 38°
2026-05-07 20:30 56.44875 -3.34297 2508 ft 134 kts 42°
2026-05-07 20:30 56.45610 -3.33254 2531 ft 136 kts 36°
2026-05-07 20:31 56.46446 -3.32538 2584 ft 131 kts 10°
2026-05-07 20:31 56.47305 -3.32702 2636 ft 120 kts 331°
2026-05-07 20:31 56.47936 -3.33548 2691 ft 108 kts 299°
2026-05-07 20:31 56.48170 -3.34742 2717 ft 96 kts 263°
2026-05-07 20:32 56.47909 -3.35759 2722 ft 91 kts 221°
2026-05-07 20:32 56.47367 -3.36329 2789 ft 91 kts 213°
2026-05-07 20:32 56.46801 -3.36852 2834 ft 91 kts 211°
2026-05-07 20:32 56.46234 -3.37363 2886 ft 92 kts 211°
2026-05-07 20:33 56.45681 -3.37829 2856 ft 87 kts 209°
2026-05-07 20:33 56.45098 -3.38300 2924 ft 94 kts 210°
2026-05-07 20:33 56.44511 -3.38816 3076 ft 93 kts 213°
2026-05-07 20:33 56.44020 -3.39584 3162 ft 97 kts 229°
2026-05-07 20:34 56.43480 -3.40269 3271 ft 99 kts 199°
2026-05-07 20:34 56.42804 -3.39837 3356 ft 119 kts 146°
2026-05-07 20:34 56.42477 -3.38386 3513 ft 123 kts 119°
2026-05-07 20:34 56.42201 -3.36954 3627 ft 121 kts 122°
2026-05-07 20:35 56.41893 -3.35580 3770 ft 116 kts 126°
2026-05-07 20:35 56.41458 -3.34390 3884 ft 111 kts 143°
2026-05-07 20:35 56.40801 -3.33869 3960 ft 101 kts 185°
2026-05-07 20:35 56.40193 -3.34323 4173 ft 88 kts 227°
2026-05-07 20:36 56.40036 -3.35371 4254 ft 102 kts 274°
2026-05-07 20:36 56.40470 -3.36506 4320 ft 115 kts 303°
2026-05-07 20:36 56.40838 -3.37222 4340 ft 120 kts 307°
2026-05-07 20:36 56.41433 -3.38296 4406 ft 123 kts 310°
2026-05-07 20:37 56.42146 -3.39207 4459 ft 131 kts 329°
2026-05-07 20:37 56.43080 -3.39364 4537 ft 138 kts 359°
2026-05-07 20:37 56.44330 -3.39030 4624 ft 140 kts 14°
2026-05-07 20:37 56.44956 -3.38597 4641 ft 144 kts 25°
2026-05-07 20:38 56.45737 -3.37526 4672 ft 145 kts 49°
2026-05-07 20:38 56.46127 -3.35879 4684 ft 140 kts 92°
2026-05-07 20:38 56.45805 -3.34384 4762 ft 124 kts 142°
2026-05-07 20:38 56.45063 -3.33840 4824 ft 113 kts 186°
2026-05-07 20:39 56.44308 -3.33993 4918 ft 107 kts 194°
2026-05-07 20:39 56.43586 -3.34287 4982 ft 107 kts 200°
2026-05-07 20:39 56.42954 -3.35023 4968 ft 112 kts 230°
2026-05-07 20:39 56.42755 -3.36307 4929 ft 107 kts 266°
2026-05-07 20:40 56.43084 -3.37527 4700 ft 114 kts 308°
2026-05-07 20:40 56.43833 -3.37989 4483 ft 122 kts
2026-05-07 20:40 56.44498 -3.37119 4257 ft 118 kts 65°
2026-05-07 20:40 56.44509 -3.35821 4025 ft 99 kts 134°
2026-05-07 20:41 56.44055 -3.34876 3705 ft 101 kts 149°
2026-05-07 20:41 56.43514 -3.34072 3503 ft 108 kts 155°
2026-05-07 20:41 56.42907 -3.33073 3413 ft 128 kts 138°
2026-05-07 20:41 56.42522 -3.31588 3510 ft 130 kts 118°
2026-05-07 20:42 56.42554 -3.29874 3447 ft 150 kts 73°
2026-05-07 20:42 56.42942 -3.28113 3423 ft 150 kts 73°
2026-05-07 20:42 56.43290 -3.26354 3390 ft 149 kts 77°
2026-05-07 20:42 56.43607 -3.24544 3255 ft 155 kts 77°
2026-05-07 20:43 56.43946 -3.22650 3058 ft 163 kts 78°
2026-05-07 20:43 56.44184 -3.20615 2815 ft 164 kts 91°
2026-05-07 20:43 56.44329 -3.18621 2754 ft 160 kts 83°
2026-05-07 20:43 56.44701 -3.16735 2519 ft 157 kts 74°
2026-05-07 20:44 56.45015 -3.14894 2210 ft 149 kts 82°
2026-05-07 20:44 56.45223 -3.13136 1888 ft 142 kts 88°
2026-05-07 20:44 56.45285 -3.11387 1571 ft 138 kts 98°
2026-05-07 20:44 56.45277 -3.09687 1143 ft 130 kts 99°
2026-05-07 20:45 56.45273 -3.08184 783 ft 111 kts 95°
2026-05-07 20:45 56.45251 -3.06846 470 ft 98 kts 97°
2026-05-07 20:45 56.45249 -3.05721 288 ft 84 kts 94°
2026-05-07 20:45 56.45248 -3.04665 158 ft 84 kts 95°
2026-05-07 20:46 56.45247 -3.03640 31 ft 77 kts 95°
2026-05-07 20:46 56.45243 -3.02757 32 ft 77 kts 91°
2026-05-07 20:46 56.45277 -3.01775 231 ft 80 kts 85°
2026-05-07 20:46 56.45351 -3.00745 466 ft 83 kts 84°
2026-05-07 20:47 56.45426 -2.99721 728 ft 85 kts 102°
2026-05-07 20:47 56.45062 -2.98879 914 ft 90 kts 158°
2026-05-07 20:47 56.44448 -2.99075 1112 ft 100 kts 217°
2026-05-07 20:47 56.44233 -3.00254 1358 ft 110 kts 274°
2026-05-07 20:48 56.44574 -3.01524 1573 ft 111 kts 281°
2026-05-07 20:48 56.44888 -3.02850 1743 ft 116 kts 287°
2026-05-07 20:48 56.45251 -3.04144 1921 ft 115 kts 289°
2026-05-07 20:48 56.45636 -3.05380 2117 ft 110 kts 288°
2026-05-07 20:49 56.45961 -3.06624 2200 ft 113 kts 286°
2026-05-07 20:49 56.46340 -3.07899 2303 ft 115 kts 291°
2026-05-07 20:49 56.46758 -3.09129 2387 ft 116 kts 293°
2026-05-07 20:49 56.47165 -3.10383 2501 ft 114 kts 289°
2026-05-07 20:50 56.47501 -3.11649 2634 ft 111 kts 285°
2026-05-07 20:50 56.47830 -3.12948 2722 ft 114 kts 286°
2026-05-07 20:50 56.48165 -3.14235 2815 ft 116 kts 288°
2026-05-07 20:50 56.48528 -3.15530 2926 ft 115 kts 291°
2026-05-07 20:51 56.48938 -3.16810 2956 ft 119 kts 292°
2026-05-07 20:51 56.49361 -3.18083 3066 ft 116 kts 292°
2026-05-07 20:51 56.49749 -3.19362 3148 ft 116 kts 287°
2026-05-07 20:51 56.50064 -3.20685 3301 ft 113 kts 282°
2026-05-07 20:52 56.50350 -3.22012 3373 ft 114 kts 282°
2026-05-07 20:52 56.50648 -3.23362 3459 ft 114 kts 281°
2026-05-07 20:52 56.50907 -3.24708 3494 ft 113 kts 279°
2026-05-07 20:52 56.51128 -3.26004 3618 ft 108 kts 276°
2026-05-07 20:53 56.51291 -3.27367 3649 ft 112 kts 274°
2026-05-07 20:53 56.51285 -3.28699 3663 ft 101 kts 252°
2026-05-07 20:53 56.50927 -3.29777 3361 ft 102 kts 231°
2026-05-07 20:53 56.50462 -3.30735 3074 ft 102 kts 226°
2026-05-07 20:54 56.49915 -3.31541 2794 ft 101 kts 213°
2026-05-07 20:54 56.49297 -3.32077 2530 ft 99 kts 210°
2026-05-07 20:54 56.48709 -3.32726 2219 ft 100 kts 216°
2026-05-07 20:54 56.48142 -3.33404 1890 ft 96 kts 213°
2026-05-07 20:55 56.47594 -3.34021 1656 ft 90 kts 211°
2026-05-07 20:55 56.47049 -3.34546 1446 ft 90 kts 208°
2026-05-07 20:55 56.46516 -3.35073 1278 ft 88 kts 208°
2026-05-07 20:55 56.45975 -3.35571 1044 ft 86 kts 208°
2026-05-07 20:56 56.45521 -3.36021 852 ft 69 kts 208°
2026-05-07 20:56 56.45121 -3.36427 656 ft 69 kts 200°
2026-05-07 20:56 56.44683 -3.36837 486 ft 73 kts 204°
2026-05-07 20:56 56.44254 -3.37255 387 ft 62 kts 208°
2026-05-07 20:57 56.43994 -3.37508 392 ft 24 kts 207°
2026-05-07 20:57 56.43869 -3.37627 392 ft 25 kts 207°
2026-05-07 20:57 56.43763 -3.37620 392 ft 18 kts 91°
2026-05-07 20:57 56.43743 -3.37364 394 ft 20 kts 153°
2026-05-07 20:58 56.43636 -3.37279 390 ft 9 kts 155°